sat.trackr.live / text

‹ back to catalog

SPACEEYE-T1

NORAD 63229 · 2025-052V

PAYLOAD ACTIVE UNKNOWN

§ Identity

Operator
Country
SKOR
Launch date
2025-03-15
Launch site
AFWTR
Launch vehicle
Mass (kg)
RCS (m²)

External: N2YO · Heavens-Above · Gunter

§ Orbital elements

Epoch: 2026-05-25T03:01:10.866144Z

Period
94.60 min
Inclination
97.3980°
Eccentricity
0.0003497
Mean motion
15.22247341 rev/d
Perigee alt
496.7 km
Apogee alt
501.5 km
Semi-major
6,877.2 km
B*
1.8510e-4
RAAN
38.0424°
Arg perigee
213.0650°
Mean anomaly
147.0368°
Rev number
6,633

§ Raw data

SPACEEYE-T11 63229U 25052V   26145.12582021  .00004188  00000+0  18510-3 0  99932 63229  97.3980  38.0424 0003497 213.0650 147.0368 15.22247341 66339

JSON: /api/v1/satellites/63229 · /tle

For live sub-satellite position, see the globe view (requires WebGL).

§ Visibility from observer

Set your observer location to see the next 7 days of passes ≥ 10°. The values pass through the URL so the page stays shareable.

No JS? Fill the form by hand. The geolocation button needs JavaScript.